Location: Kerb�bon
(47.7970°N, 3.3487°W)
Time: 12:11:33
(UTC+00:00)

Cosmos 1666 - Pass Details

Date: 12 May 2021
Orbit: 495 x 519 km, 82.5° (Epoch: 18 June)

Event Time Altitude Azimuth Distance (km) Brightness Sun altitude
Rises 22:10:59 0° 340° (NNW) 2,600 7.9 -18.7°
Reaches altitude 10° 22:13:18 10° 329° (NNW) 1,708 6.6 -18.9°
Maximum altitude 22:16:31 28° 269° (W) 968 4.3 -19.1°
Enters shadow 22:18:17 19° 226° (SW) 1,240 4.4 -19.3°
